"Period start","avg(HW err(1)/warn(2) (#))","avg(Visibility (m))","avg(Weather code (#))","avg(Precip intensity (mm/h))","min(HW err(1)/warn(2) (#))","max(HW err(1)/warn(2) (#))","std(HW err(1)/warn(2) (#))","med(HW err(1)/warn(2) (#))","min(Visibility (m))","max(Visibility (m))","std(Visibility (m))","med(Visibility (m))","min(Weather code (#))","max(Weather code (#))","std(Weather code (#))","med(Weather code (#))","min(Precip intensity (mm/h))","max(Precip intensity (mm/h))","std(Precip intensity (mm/h))","med(Precip intensity (mm/h))"
2016-05-26 00:00:00,2,5504,59,0.02,2,2,0,2,3200,8315,1483,5614,41,77,18,59,0.00,0.05,0.02,0.00
2016-05-26 00:10:00,2,5500,65,0.04,2,2,0,2,4159,6608,807,5842,41,77,16,74,0.00,0.10,0.03,0.05
2016-05-26 00:20:00,2,6954,63,0.02,2,2,0,2,5676,8520,812,6823,41,77,18,77,0.00,0.05,0.02,0.00
2016-05-26 00:30:00,2,6929,47,0.01,2,2,0,2,5288,8305,889,6740,41,61,9,41,0.00,0.05,0.02,0.00
2016-05-26 00:40:00,2,7662,45,0.02,2,2,0,2,5274,10275,1462,7640,41,61,8,41,0.00,0.05,0.02,0.00
2016-05-26 00:50:00,2,16026,43,0.01,2,2,0,2,9476,21257,3325,16778,41,61,6,41,0.00,0.05,0.02,0.00
2016-05-26 01:00:00,2,18720,20,0.01,2,2,0,2,10059,26380,5418,18644,0,61,26,0,0.00,0.05,0.02,0.00
2016-05-26 01:10:00,2,15815,58,0.06,2,2,0,2,7420,29746,5854,14451,41,77,17,56,0.00,0.10,0.03,0.05
2016-05-26 01:20:00,2,21961,66,0.03,2,2,0,2,11570,31809,7653,22085,41,77,16,77,0.00,0.05,0.03,0.03
2016-05-26 01:30:00,2,10682,41,0.04,2,2,0,2,7921,16599,2742,9879,41,41,0,41,0.00,0.05,0.02,0.05
2016-05-26 01:40:00,2,7878,41,0.06,2,2,0,2,6993,9746,833,7564,41,41,0,41,0.05,0.10,0.02,0.05
2016-05-26 01:50:00,2,7310,50,0.04,2,2,0,2,5853,9868,1435,6736,41,71,14,41,0.00,0.10,0.04,0.05
2016-05-26 02:00:00,2,5416,71,0.08,2,2,0,2,4836,6400,535,5270,71,71,0,71,0.05,0.15,0.03,0.08
2016-05-26 02:10:00,2,5183,71,0.11,2,2,0,2,3573,6488,966,4940,71,71,0,71,0.00,0.35,0.11,0.05
2016-05-26 02:20:00,2,3616,71,0.13,2,2,0,2,3103,4257,363,3512,71,71,0,71,0.05,0.50,0.13,0.08
2016-05-26 02:30:00,2,3573,71,0.27,2,2,0,2,3047,4054,363,3639,71,71,0,71,0.05,0.65,0.20,0.17
2016-05-26 02:40:00,2,4889,71,0.24,2,2,0,2,3620,6252,932,4887,71,71,0,71,0.05,0.70,0.22,0.15
2016-05-26 02:50:00,2,4911,71,0.20,2,2,0,2,3304,5968,784,4988,71,71,0,71,0.05,0.75,0.19,0.15
2016-05-26 03:00:00,2,3141,67,0.22,2,2,0,2,2740,3478,278,3160,61,71,5,71,0.10,0.30,0.06,0.20
2016-05-26 03:10:00,2,3357,43,0.24,2,2,0,2,2706,3810,350,3418,41,61,6,41,0.15,0.30,0.06,0.25
2016-05-26 03:20:00,2,7492,41,0.17,2,2,0,2,4792,10709,2081,6912,41,41,0,41,0.00,0.25,0.08,0.20
2016-05-26 03:30:00,2,5356,50,0.34,2,2,0,2,2825,8100,1756,5818,41,71,14,41,0.15,0.70,0.19,0.25
2016-05-26 03:40:00,2,4602,71,0.34,2,2,0,2,2328,8411,2003,4048,71,71,0,71,0.00,1.20,0.40,0.15
2016-05-26 03:50:00,2,7863,41,0.10,2,2,0,2,4261,11171,2043,8538,41,41,0,41,0.00,0.15,0.05,0.10
2016-05-26 04:00:00,2,9225,41,0.17,2,2,0,2,6954,13957,2219,8458,41,41,0,41,0.05,0.30,0.09,0.17
2016-05-26 04:10:00,2,35836,8,0.01,2,2,0,2,19993,50000,8613,34401,0,41,16,0,0.00,0.10,0.03,0.00
2016-05-26 04:20:00,2,41725,0,0.00,2,2,0,2,33044,50000,5000,42122,0,0,0,0,0.00,0.00,0.00,0.00
2016-05-26 04:30:00,2,43779,0,0.00,2,2,0,2,31863,50000,5069,43962,0,0,0,0,0.00,0.00,0.00,0.00
2016-05-26 04:40:00,2,46442,0,0.00,2,2,0,2,40397,50000,3214,46817,0,0,0,0,0.00,0.00,0.00,0.00
2016-05-26 04:50:00,2,37246,0,0.00,2,2,0,2,27523,50000,7988,33240,0,0,0,0,0.00,0.00,0.00,0.00
2016-05-26 05:00:00,2,45915,0,0.00,2,2,0,2,36488,50000,3668,46218,0,0,0,0,0.00,0.00,0.00,0.00
2016-05-26 05:10:00,2,48306,0,0.00,2,2,0,2,42046,50000,2594,50000,0,0,0,0,0.00,0.00,0.00,0.00
2016-05-26 05:20:00,2,42929,0,0.00,2,2,0,2,32039,50000,5808,44270,0,0,0,0,0.00,0.00,0.00,0.00
2016-05-26 05:30:00,2,48086,0,0.00,2,2,0,2,42260,50000,2593,49470,0,0,0,0,0.00,0.00,0.00,0.00
2016-05-26 05:40:00,2,45398,0,0.00,2,2,0,2,36965,49161,3769,46689,0,0,0,0,0.00,0.00,0.00,0.00
2016-05-26 05:50:00,2,46179,0,0.00,2,2,0,2,37943,50000,4375,47760,0,0,0,0,0.00,0.00,0.00,0.00
2016-05-26 06:00:00,2,45353,0,0.00,2,2,0,2,35178,50000,5272,48067,0,0,0,0,0.00,0.00,0.00,0.00
2016-05-26 06:10:00,2,43640,0,0.00,2,2,0,2,33428,50000,4838,45090,0,0,0,0,0.00,0.00,0.00,0.00
2016-05-26 06:20:00,2,44672,0,0.00,2,2,0,2,36901,50000,4508,45215,0,0,0,0,0.00,0.00,0.00,0.00
2016-05-26 06:30:00,2,46141,0,0.00,2,2,0,2,41196,50000,3494,47535,0,0,0,0,0.00,0.00,0.00,0.00
2016-05-26 06:40:00,2,44668,0,0.00,2,2,0,2,38861,50000,3618,44704,0,0,0,0,0.00,0.00,0.00,0.00
2016-05-26 06:50:00,2,48618,0,0.00,2,2,0,2,43790,50000,2355,50000,0,0,0,0,0.00,0.00,0.00,0.00
2016-05-26 07:00:00,2,46636,0,0.00,2,2,0,2,41817,50000,2975,46647,0,0,0,0,0.00,0.00,0.00,0.00
2016-05-26 07:10:00,2,48261,0,0.00,2,2,0,2,43946,50000,2188,49786,0,0,0,0,0.00,0.00,0.00,0.00
2016-05-26 07:20:00,2,48250,0,0.00,2,2,0,2,43311,50000,2575,49625,0,0,0,0,0.00,0.00,0.00,0.00
2016-05-26 07:30:00,2,49976,0,0.00,2,2,0,2,49847,50000,51,50000,0,0,0,0,0.00,0.00,0.00,0.00
2016-05-26 07:40:00,2,47790,0,0.00,2,2,0,2,44472,50000,2070,48424,0,0,0,0,0.00,0.00,0.00,0.00
2016-05-26 07:50:00,2,47249,0,0.00,2,2,0,2,38105,50000,4017,49290,0,0,0,0,0.00,0.00,0.00,0.00
2016-05-26 08:00:00,2,46256,0,0.00,2,2,0,2,36515,50000,4072,47534,0,0,0,0,0.00,0.00,0.00,0.00
2016-05-26 08:10:00,2,46117,0,0.00,2,2,0,2,36854,50000,4203,47238,0,0,0,0,0.00,0.00,0.00,0.00
2016-05-26 08:20:00,2,48106,0,0.00,2,2,0,2,44032,50000,2411,50000,0,0,0,0,0.00,0.00,0.00,0.00
2016-05-26 08:30:00,2,49222,0,0.00,2,2,0,2,45200,50000,1423,50000,0,0,0,0,0.00,0.00,0.00,0.00
2016-05-26 08:40:00,2,48670,0,0.00,2,2,0,2,42261,50000,2484,50000,0,0,0,0,0.00,0.00,0.00,0.00
2016-05-26 08:50:00,2,45386,0,0.00,2,2,0,2,25287,50000,7484,49237,0,0,0,0,0.00,0.00,0.00,0.00
2016-05-26 09:00:00,2,36682,0,0.00,2,2,0,2,18661,50000,9662,37780,0,0,0,0,0.00,0.00,0.00,0.00
2016-05-26 09:10:00,2,48727,0,0.00,2,2,0,2,39253,50000,3173,50000,0,0,0,0,0.00,0.00,0.00,0.00
2016-05-26 09:20:00,2,49235,0,0.00,2,2,0,2,42843,50000,2136,50000,0,0,0,0,0.00,0.00,0.00,0.00
2016-05-26 09:30:00,2,48220,0,0.00,2,2,0,2,42449,50000,2558,49694,0,0,0,0,0.00,0.00,0.00,0.00
2016-05-26 09:40:00,2,49242,0,0.00,2,2,0,2,42421,50000,2274,50000,0,0,0,0,0.00,0.00,0.00,0.00
2016-05-26 09:50:00,2,47808,0,0.00,2,2,0,2,41269,50000,2872,49518,0,0,0,0,0.00,0.00,0.00,0.00
2016-05-26 10:00:00,2,48870,0,0.00,2,2,0,2,41575,50000,2578,50000,0,0,0,0,0.00,0.00,0.00,0.00
2016-05-26 10:10:00,2,48358,0,0.00,2,2,0,2,43166,50000,2680,50000,0,0,0,0,0.00,0.00,0.00,0.00
2016-05-26 10:20:00,2,49638,0,0.00,2,2,0,2,47845,50000,664,50000,0,0,0,0,0.00,0.00,0.00,0.00
2016-05-26 10:30:00,2,50000,0,0.00,2,2,0,2,50000,50000,0,50000,0,0,0,0,0.00,0.00,0.00,0.00
2016-05-26 10:40:00,2,49908,0,0.00,2,2,0,2,49468,50000,179,50000,0,0,0,0,0.00,0.00,0.00,0.00
2016-05-26 10:50:00,2,50000,0,0.00,2,2,0,2,50000,50000,0,50000,0,0,0,0,0.00,0.00,0.00,0.00
2016-05-26 11:00:00,2,49657,0,0.00,2,2,0,2,46856,50000,937,50000,0,0,0,0,0.00,0.00,0.00,0.00
2016-05-26 11:10:00,2,49012,0,0.00,2,2,0,2,43066,50000,2152,50000,0,0,0,0,0.00,0.00,0.00,0.00
2016-05-26 11:20:00,2,49199,0,0.00,2,2,0,2,45144,50000,1646,50000,0,0,0,0,0.00,0.00,0.00,0.00
2016-05-26 11:30:00,2,50000,0,0.00,2,2,0,2,50000,50000,0,50000,0,0,0,0,0.00,0.00,0.00,0.00
2016-05-26 11:40:00,2,50000,0,0.00,2,2,0,2,50000,50000,0,50000,0,0,0,0,0.00,0.00,0.00,0.00
2016-05-26 11:50:00,2,49390,0,0.00,2,2,0,2,44074,50000,1773,50000,0,0,0,0,0.00,0.00,0.00,0.00
2016-05-26 12:00:00,2,49901,0,0.00,2,2,0,2,49006,50000,298,50000,0,0,0,0,0.00,0.00,0.00,0.00
2016-05-26 12:10:00,2,50000,0,0.00,2,2,0,2,50000,50000,0,50000,0,0,0,0,0.00,0.00,0.00,0.00
2016-05-26 12:20:00,2,50000,0,0.00,2,2,0,2,50000,50000,0,50000,0,0,0,0,0.00,0.00,0.00,0.00
2016-05-26 12:30:00,2,49986,0,0.00,2,2,0,2,49855,50000,44,50000,0,0,0,0,0.00,0.00,0.00,0.00
2016-05-26 12:40:00,2,50000,0,0.00,2,2,0,2,50000,50000,0,50000,0,0,0,0,0.00,0.00,0.00,0.00
2016-05-26 12:50:00,2,50000,0,0.00,2,2,0,2,50000,50000,0,50000,0,0,0,0,0.00,0.00,0.00,0.00
2016-05-26 13:00:00,2,49787,0,0.00,2,2,0,2,48609,50000,450,50000,0,0,0,0,0.00,0.00,0.00,0.00
2016-05-26 13:10:00,2,50000,0,0.00,2,2,0,2,50000,50000,0,50000,0,0,0,0,0.00,0.00,0.00,0.00
2016-05-26 13:20:00,2,50000,0,0.00,2,2,0,2,50000,50000,0,50000,0,0,0,0,0.00,0.00,0.00,0.00
2016-05-26 13:30:00,2,50000,0,0.00,2,2,0,2,50000,50000,0,50000,0,0,0,0,0.00,0.00,0.00,0.00
2016-05-26 13:40:00,2,50000,0,0.00,2,2,0,2,50000,50000,0,50000,0,0,0,0,0.00,0.00,0.00,0.00
2016-05-26 13:50:00,2,50000,0,0.00,2,2,0,2,50000,50000,0,50000,0,0,0,0,0.00,0.00,0.00,0.00
2016-05-26 14:00:00,2,50000,0,0.00,2,2,0,2,50000,50000,0,50000,0,0,0,0,0.00,0.00,0.00,0.00
2016-05-26 14:10:00,2,50000,0,0.00,2,2,0,2,50000,50000,0,50000,0,0,0,0,0.00,0.00,0.00,0.00
2016-05-26 14:20:00,2,49606,0,0.00,2,2,0,2,46062,50000,1181,50000,0,0,0,0,0.00,0.00,0.00,0.00
2016-05-26 14:30:00,2,49476,0,0.00,2,2,0,2,45409,50000,1369,50000,0,0,0,0,0.00,0.00,0.00,0.00
2016-05-26 14:40:00,2,49938,0,0.00,2,2,0,2,49379,50000,186,50000,0,0,0,0,0.00,0.00,0.00,0.00
2016-05-26 14:50:00,2,49995,0,0.00,2,2,0,2,49951,50000,15,50000,0,0,0,0,0.00,0.00,0.00,0.00
2016-05-26 15:00:00,2,50000,0,0.00,2,2,0,2,50000,50000,0,50000,0,0,0,0,0.00,0.00,0.00,0.00
2016-05-26 15:10:00,2,49972,0,0.00,2,2,0,2,49719,50000,84,50000,0,0,0,0,0.00,0.00,0.00,0.00
2016-05-26 15:20:00,2,49566,0,0.00,2,2,0,2,47691,50000,759,50000,0,0,0,0,0.00,0.00,0.00,0.00
2016-05-26 15:30:00,2,49097,0,0.00,2,2,0,2,45174,50000,1550,50000,0,0,0,0,0.00,0.00,0.00,0.00
2016-05-26 15:40:00,2,49873,0,0.00,2,2,0,2,48732,50000,380,50000,0,0,0,0,0.00,0.00,0.00,0.00
2016-05-26 15:50:00,2,49882,0,0.00,2,2,0,2,48822,50000,353,50000,0,0,0,0,0.00,0.00,0.00,0.00
2016-05-26 16:00:00,2,49264,0,0.00,2,2,0,2,44724,50000,1588,50000,0,0,0,0,0.00,0.00,0.00,0.00
2016-05-26 16:10:00,2,48779,0,0.00,2,2,0,2,45687,50000,1515,49663,0,0,0,0,0.00,0.00,0.00,0.00
2016-05-26 16:20:00,2,49310,0,0.00,2,2,0,2,47546,50000,1053,50000,0,0,0,0,0.00,0.00,0.00,0.00
2016-05-26 16:30:00,2,49515,0,0.00,2,2,0,2,47459,50000,909,50000,0,0,0,0,0.00,0.00,0.00,0.00
2016-05-26 16:40:00,2,42125,0,0.00,2,2,0,2,28716,50000,7180,43178,0,0,0,0,0.00,0.00,0.00,0.00
2016-05-26 16:50:00,2,12126,54,0.04,2,2,0,2,6354,38699,10163,7338,0,77,31,77,0.00,0.10,0.04,0.05
2016-05-26 17:00:00,2,6759,77,0.05,2,2,0,2,5770,8641,900,6323,77,77,0,77,0.05,0.05,0.00,0.05
2016-05-26 17:10:00,2,7014,77,0.04,2,2,0,2,5556,8622,1189,6391,77,77,0,77,0.00,0.10,0.04,0.05
2016-05-26 17:20:00,2,5620,77,0.07,2,2,0,2,4186,7366,788,5700,77,77,0,77,0.05,0.15,0.03,0.05
2016-05-26 17:30:00,2,4646,77,0.06,2,2,0,2,3464,5268,529,4670,77,77,0,77,0.05,0.10,0.02,0.05
2016-05-26 17:40:00,2,6623,65,0.07,2,2,0,2,5060,8974,1152,6679,41,77,16,74,0.05,0.10,0.02,0.05
2016-05-26 17:50:00,2,3741,41,0.09,2,2,0,2,2368,6469,1052,3634,41,41,0,41,0.05,0.15,0.04,0.10
2016-05-26 18:00:00,2,2407,41,0.09,2,2,0,2,1512,3346,543,2342,41,41,0,41,0.05,0.15,0.03,0.10
2016-05-26 18:10:00,2,982,41,0.14,2,2,0,2,587,1461,309,994,41,41,0,41,0.05,0.20,0.04,0.15
2016-05-26 18:20:00,2,353,72,0.16,2,2,0,2,272,501,66,322,67,77,5,72,0.10,0.20,0.04,0.15
2016-05-26 18:30:00,2,354,74,0.14,2,2,0,2,319,420,27,350,67,77,5,77,0.00,0.20,0.06,0.15
2016-05-26 18:40:00,2,324,70,0.20,2,2,0,2,298,378,25,318,67,77,5,67,0.10,0.30,0.07,0.20
2016-05-26 18:50:00,2,349,72,0.17,2,2,0,2,318,385,25,344,67,77,5,72,0.05,0.30,0.08,0.15
2016-05-26 19:00:00,2,297,72,0.21,2,2,0,2,231,350,34,299,67,77,5,72,0.05,0.30,0.07,0.23
2016-05-26 19:10:00,2,201,77,0.20,2,2,0,2,185,230,12,198,77,77,0,77,0.10,0.30,0.06,0.20
2016-05-26 19:20:00,2,229,77,0.16,2,2,0,2,193,276,24,228,77,77,0,77,0.10,0.20,0.03,0.15
2016-05-26 19:30:00,2,300,64,0.27,2,2,0,2,235,448,69,274,61,77,6,61,0.05,0.40,0.13,0.30
2016-05-26 19:40:00,2,10856,36,0.01,2,2,0,2,413,29181,12383,2048,33,61,8,33,0.00,0.05,0.02,0.00
2016-05-26 19:50:00,2,30980,27,0.00,2,2,0,2,20182,42181,8022,31454,20,30,5,30,0.00,0.00,0.00,0.00
2016-05-26 20:00:00,2,41278,20,0.00,2,2,0,2,21252,49657,7950,43529,20,20,0,20,0.00,0.00,0.00,0.00
2016-05-26 20:10:00,2,1781,21,0.00,2,2,0,2,643,8976,2424,890,20,30,3,20,0.00,0.00,0.00,0.00
2016-05-26 20:20:00,2,14944,26,0.00,2,2,0,2,1534,31775,10820,14620,20,30,5,30,0.00,0.00,0.00,0.00
2016-05-26 20:30:00,2,43860,20,0.00,2,2,0,2,38276,49523,3916,44282,20,20,0,20,0.00,0.00,0.00,0.00
2016-05-26 20:40:00,2,46431,20,0.00,2,2,0,2,39887,50000,3602,47348,20,20,0,20,0.00,0.00,0.00,0.00
2016-05-26 20:50:00,2,45264,20,0.00,2,2,0,2,39113,49670,3776,46050,20,20,0,20,0.00,0.00,0.00,0.00
2016-05-26 21:00:00,2,47308,20,0.00,2,2,0,2,36970,50000,4019,48920,20,20,0,20,0.00,0.00,0.00,0.00
2016-05-26 21:10:00,2,42738,20,0.00,2,2,0,2,34551,50000,3932,43972,20,20,0,20,0.00,0.00,0.00,0.00
2016-05-26 21:20:00,2,33195,10,0.00,2,2,0,2,20261,50000,10796,31632,0,20,10,10,0.00,0.00,0.00,0.00
2016-05-26 21:30:00,2,38688,0,0.00,2,2,0,2,32092,46060,4167,39469,0,0,0,0,0.00,0.00,0.00,0.00
2016-05-26 21:40:00,2,48904,0,0.00,2,2,0,2,43178,50000,2092,50000,0,0,0,0,0.00,0.00,0.00,0.00
2016-05-26 21:50:00,2,45715,0,0.00,2,2,0,2,34534,50000,4965,47226,0,0,0,0,0.00,0.00,0.00,0.00
2016-05-26 22:00:00,2,49142,0,0.00,2,2,0,2,45781,50000,1448,50000,0,0,0,0,0.00,0.00,0.00,0.00
2016-05-26 22:10:00,2,45407,0,0.00,2,2,0,2,37667,50000,5147,48506,0,0,0,0,0.00,0.00,0.00,0.00
2016-05-26 22:20:00,2,48825,0,0.00,2,2,0,2,44806,50000,1982,50000,0,0,0,0,0.00,0.00,0.00,0.00
2016-05-26 22:30:00,2,47998,0,0.00,2,2,0,2,41150,50000,3414,50000,0,0,0,0,0.00,0.00,0.00,0.00
2016-05-26 22:40:00,2,43574,0,0.00,2,2,0,2,38432,48905,3579,43228,0,0,0,0,0.00,0.00,0.00,0.00
2016-05-26 22:50:00,2,49442,0,0.00,2,2,0,2,45730,50000,1266,50000,0,0,0,0,0.00,0.00,0.00,0.00
2016-05-26 23:00:00,2,48119,0,0.00,2,2,0,2,40511,50000,2951,49682,0,0,0,0,0.00,0.00,0.00,0.00
2016-05-26 23:10:00,2,48069,0,0.00,2,2,0,2,43692,50000,2374,49394,0,0,0,0,0.00,0.00,0.00,0.00
2016-05-26 23:20:00,2,47413,0,0.00,2,2,0,2,42108,50000,2752,48172,0,0,0,0,0.00,0.00,0.00,0.00
2016-05-26 23:30:00,2,48320,0,0.00,2,2,0,2,40381,50000,2857,49848,0,0,0,0,0.00,0.00,0.00,0.00
2016-05-26 23:40:00,2,42720,0,0.00,2,2,0,2,31949,50000,5797,43882,0,0,0,0,0.00,0.00,0.00,0.00
2016-05-26 23:50:00,2,46150,0,0.00,2,2,0,2,32954,50000,5678,48762,0,0,0,0,0.00,0.00,0.00,0.00
